User: anonymous   Login
Location: Kalberh�ni
(46.4610°N, 7.2453°E)
Time: 09:24:19
(UTC+00:00)
Language:

Cosmos 2123 Rocket - Orbit

View from above orbital plane
View from above orbital plane
View from above satellite
View from above satellite

Ground track
Ground track

The orbit data is extracted from the following two-line orbital elements,

1 21090U 91007B   21265.44829046  .00000075  00000-0  60910-4 0  9994
2 21090  82.9233 158.1410 0020910   2.5647 357.5613 13.76403388538073
Epoch (UTC): 22 September 2021 10:45:32
Eccentricity: 0.0020910
inclination: 82.9233°
perigee height: 961 km
apogee height: 992 km
right ascension of ascending node: 158.1410°
argument of perigee: 2.5647°
revolutions per day: 13.76403388
mean anomaly at epoch: 357.5613°
orbit number at epoch: 53807

The dashed part of the orbit path shows where the satellite is in the earth's shadow,  

DLR